Location: Ripley
(48.3812°N, 115.4473°W)
Time: 02:28:20
(UTC+00:00)

VELOX 1 - Pass Details

Date: 09 July 2022
Orbit: 623 x 639 km, 98.4° (Epoch: 17 August)

Event Time Altitude Azimuth Distance (km) Brightness Sun altitude
Rises 10:29:40 0° 111° (ESE) 2,937 ? -10.5°
Reaches altitude 10° 10:32:55 10° 85° (E) 2,035 ? -10.2°
Maximum altitude 10:35:01 13° 56° (ENE) 1,822 ? -9.9°
Drops below altitude 10° 10:37:08 10° 28° (NNE) 2,044 ? -9.7°
Sets 10:40:24 0° 2° (N) 2,959 ? -9.4°
